Spokane Felts, WA

8:50 AM PDT on October 18, 2017 (GMT -0700)
Felts

Weather History for KSFF - October, 2012

Change the Weather History Date:

Thursday, October 25, 2012

  Actual Average Record
Temperature  
Mean Temperature 40 °F 44 °F  
Max Temperature 44 °F 54 °F 68 °F (2014)
Min Temperature 36 °F 35 °F 21 °F (2002)
Degree Days  
Heating Degree Days 25 21  
Month to date heating degree days 375 395  
Since 1 July heating degree days 462 606  
Cooling Degree Days 0 0  
Month to date cooling degree days 0 0  
Year to date cooling degree days 509 406  
Moisture  
Dew Point 35 °F    
Average Humidity 80    
Maximum Humidity 89    
Minimum Humidity 70    
Precipitation  
Precipitation 0.04 in 0.05 in 0.27 in (1999)
Month to date precipitation 0.78 1.04  
Year to date precipitation 14.65 12.62  
Sea Level Pressure  
Sea Level Pressure 30.30 in    
Wind  
Wind Speed 2 mph (South)    
Max Wind Speed 9 mph    
Max Gust Speed 13 mph    
Visibility 10 miles    
Events Rain    
T = Trace of Precipitation, MM = Missing Value Source: NWS Daily Summary

Daily Weather History Graph

Daily Weather History Graph

Search for Another Location

Airport or City:

Trip Planner

Search our weather history database for the weather conditions in past years. The results will help you decide how hot, cold, wet, or windy it might be!

Date:

Astronomy

Oct. 25, 2012 Rise Set
Actual Time 7:23 AM PDT 5:42 PM PDT
Civil Twilight 6:52 AM PDT 6:13 PM PDT
Nautical Twilight 6:15 AM PDT 6:49 PM PDT
Astronomical Twilight 5:40 AM PDT 7:25 PM PDT
Moon 3:43 PM PDT (10/25) 3:09 AM PDT (10/25)
Length of Visible Light 11h 21m
Length of Day
10h 18m
Waxing Gibbous, 85% of the Moon is Illuminated
Oct 25
Waxing Gibbous
Oct 29
Full
Nov 6
Last Quarter
Nov 13
New
Nov 20
First Quarter

Hourly Weather History & Observations

Time (PDT) Temp. Windchill Dew Point Humidity Pressure Visibility Wind Dir Wind Speed Gust Speed Precip Events Conditions
12:16 AM 39.2 °F - 35.6 °F 87% 30.13 in 10.0 mi Calm Calm - N/A   Overcast
12:53 AM 39.9 °F - 36.0 °F 86% 30.17 in 10.0 mi Calm Calm - N/A   Overcast
1:19 AM 39.2 °F - 35.6 °F 87% 30.15 in 10.0 mi Calm Calm - 0.01 in   Overcast
1:44 AM 39.2 °F 35.9 °F 35.6 °F 87% 30.15 in 10.0 mi ENE 4.6 mph - 0.01 in   Overcast
1:53 AM 39.0 °F - 36.0 °F 89% 30.18 in 10.0 mi Calm Calm - 0.01 in   Overcast
2:10 AM 39.2 °F - 35.6 °F 87% 30.16 in 10.0 mi Calm Calm - N/A   Overcast
2:22 AM 39.2 °F - 37.4 °F 93% 30.17 in 9.0 mi Calm Calm - N/A   Overcast
2:42 AM 39.2 °F - 35.6 °F 87% 30.17 in 9.0 mi Calm Calm - 0.00 in Rain Light Rain
2:53 AM 39.0 °F 36.8 °F 35.1 °F 86% 30.19 in 10.0 mi NE 3.5 mph - 0.00 in   Overcast
3:44 AM 37.4 °F - 35.6 °F 93% 30.18 in 8.0 mi Calm Calm - N/A   Overcast
3:53 AM 39.0 °F - 36.0 °F 89% 30.21 in 10.0 mi Calm Calm - N/A   Overcast
4:24 AM 39.2 °F - 35.6 °F 87% 30.19 in 10.0 mi Calm Calm - N/A   Overcast
4:53 AM 39.0 °F - 36.0 °F 89% 30.23 in 10.0 mi Calm Calm - N/A   Overcast
5:10 AM 37.4 °F - 35.6 °F 93% 30.20 in 10.0 mi Calm Calm - N/A   Overcast
5:39 AM 39.2 °F - 35.6 °F 87% 30.21 in 10.0 mi Calm Calm - N/A   Overcast
5:53 AM 39.0 °F - 35.1 °F 86% 30.25 in 10.0 mi Calm Calm - N/A   Overcast
6:53 AM 39.0 °F 36.8 °F 34.0 °F 82% 30.27 in 10.0 mi Variable 3.5 mph - N/A   Overcast
7:53 AM 37.9 °F 34.4 °F 33.1 °F 83% 30.29 in 10.0 mi SW 4.6 mph - N/A   Overcast
8:53 AM 37.9 °F 33.5 °F 33.1 °F 83% 30.31 in 9.0 mi SW 5.8 mph - N/A   Overcast
9:53 AM 37.9 °F 35.5 °F 33.1 °F 83% 30.34 in 9.0 mi West 3.5 mph - 0.00 in Rain Light Rain
10:53 AM 37.0 °F - 33.1 °F 86% 30.37 in 7.0 mi Calm Calm - 0.04 in Rain Light Rain
11:53 AM 39.0 °F - 35.1 °F 86% 30.38 in 7.0 mi Calm Calm - 0.00 in   Overcast
12:53 PM 41.0 °F - 36.0 °F 82% 30.39 in 10.0 mi Calm Calm - N/A   Overcast
12:56 PM 42.8 °F - 35.6 °F 76% 30.36 in 10.0 mi Calm Calm - N/A   Overcast
1:53 PM 43.0 °F - 35.1 °F 74% 30.40 in 10.0 mi Calm Calm - N/A   Overcast
2:53 PM 43.0 °F 40.3 °F 35.1 °F 74% 30.40 in 10.0 mi SSE 4.6 mph - N/A   Overcast
3:53 PM 43.0 °F 40.3 °F 34.0 °F 71% 30.42 in 10.0 mi SW 4.6 mph - 0.00 in   Overcast
4:53 PM 42.1 °F 40.2 °F 36.0 °F 79% 30.43 in 10.0 mi North 3.5 mph - 0.00 in   Overcast
5:53 PM 42.1 °F - 36.0 °F 79% 30.44 in 10.0 mi Calm Calm - N/A   Overcast
6:53 PM 42.1 °F 40.2 °F 36.0 °F 79% 30.45 in 10.0 mi South 3.5 mph - N/A   Overcast
7:53 PM 41.0 °F 37.1 °F 34.0 °F 76% 30.46 in 10.0 mi SSW 5.8 mph - N/A   Overcast
8:36 PM 39.2 °F 35.9 °F 33.8 °F 81% 30.41 in 10.0 mi SE 4.6 mph - N/A   Scattered Clouds
8:53 PM 37.9 °F 34.4 °F 33.1 °F 83% 30.44 in 10.0 mi East 4.6 mph - N/A   Clear
9:53 PM 37.9 °F - 33.1 °F 83% 30.46 in 10.0 mi Calm Calm - N/A   Scattered Clouds
11:53 PM 36.0 °F - 32.0 °F 86% 30.46 in 10.0 mi Calm Calm - N/A   Clear